20-09-2022, 00:00:06,    350,    0.0,   10.0,   0.00,   0.00, 1021.1,   81.6, -999.0
20-09-2022, 00:00:16,    346,    0.0,    9.9,   0.00,   0.00, 1021.1,   81.7, -999.0
20-09-2022, 00:00:26,    346,    0.0,    9.9,   0.00,   0.00, 1021.1,   81.6, -999.0
20-09-2022, 00:00:36,    345,    0.0,    9.9,   0.00,   0.00, 1021.1,   81.7, -999.0
20-09-2022, 00:00:46,    345,    0.0,   10.0,   0.00,   0.00, 1021.1,   81.6, -999.0
20-09-2022, 00:00:56,    345,    0.0,   10.0,   0.00,   0.00, 1021.1,   81.7, -999.0
20-09-2022, 00:01:06,    345,    0.0,   10.0,   0.00,   0.00, 1021.1,   81.7, -999.0
20-09-2022, 00:01:16,    346,    0.0,   10.0,   0.00,   0.00, 1021.0,   81.7, -999.0
20-09-2022, 00:01:26,    345,    0.0,   10.0,   0.00,   0.00, 1021.1,   81.8, -999.0
20-09-2022, 00:01:35,    345,    0.0,   10.0,   0.00,   0.00, 1021.0,   81.8, -999.0
20-09-2022, 00:01:46,    346,    0.0,   10.0,   0.00,   0.00, 1021.0,   81.8, -999.0
20-09-2022, 00:01:56,    345,    0.0,   10.0,   0.00,   0.00, 1021.1,   81.9, -999.0
20-09-2022, 00:02:05,    346,    0.0,   10.1,   0.00,   0.00, 1021.1,   81.8, -999.0
20-09-2022, 00:02:15,    346,    0.0,   10.1,   0.00,   0.00, 1021.1,   81.8, -999.0
20-09-2022, 00:02:26,    346,    0.0,   10.1,   0.00,   0.00, 1021.1,   81.7, -999.0
20-09-2022, 00:02:35,    346,    0.0,   10.1,   0.00,   0.00, 1021.1,   81.8, -999.0
20-09-2022, 00:02:45,    346,    0.0,   10.1,   0.00,   0.00, 1021.0,   81.7, -999.0
20-09-2022, 00:02:55,    345,    0.0,   10.0,   0.00,   0.00, 1021.0,   81.7, -999.0
20-09-2022, 00:03:05,    345,    0.0,   10.0,   0.00,   0.00, 1021.0,   81.7, -999.0
20-09-2022, 00:03:15,    346,    0.0,   10.0,   0.00,   0.00, 1021.0,   81.6, -999.0
20-09-2022, 00:03:25,    346,    0.0,   10.0,   0.00,   0.00, 1021.0,   81.5, -999.0
20-09-2022, 00:03:35,    345,    0.0,   10.0,   0.00,   0.00, 1021.0,   81.5, -999.0
20-09-2022, 00:03:45,    345,    0.0,    9.9,   0.00,   0.00, 1021.0,   81.4, -999.0
20-09-2022, 00:03:55,    346,    0.0,   10.0,   0.00,   0.00, 1021.0,   81.4, -999.0
20-09-2022, 00:04:05,    346,    0.0,   10.1,   0.00,   0.00, 1021.0,   81.5, -999.0
20-09-2022, 00:04:15,    345,    0.0,   10.1,   0.00,   0.00, 1021.0,   81.5, -999.0
20-09-2022, 00:04:25,    346,    0.0,   10.1,   0.00,   0.00, 1021.0,   81.4, -999.0
20-09-2022, 00:04:35,    345,    0.0,   10.0,   0.00,   0.00, 1021.0,   81.4, -999.0
20-09-2022, 00:04:44,    346,    0.0,    9.9,   0.00,   0.00, 1021.0,   81.4, -999.0
20-09-2022, 00:04:55,    345,    0.0,   10.0,   0.00,   0.00, 1021.0,   81.4, -999.0
20-09-2022, 00:05:05,    345,    0.0,   10.0,   0.00,   0.00, 1021.0,   81.4, -999.0
20-09-2022, 00:05:14,    346,    0.0,   10.0,   0.00,   0.00, 1021.0,   81.5, -999.0
20-09-2022, 00:05:25,    345,    0.0,   10.0,   0.00,   0.00, 1021.0,   81.3, -999.0
20-09-2022, 00:05:35,    346,    0.0,   10.0,   0.00,   0.00, 1021.0,   81.3, -999.0
20-09-2022, 00:05:44,    346,    0.0,   10.0,   0.00,   0.00, 1021.0,   81.4, -999.0
20-09-2022, 00:05:54,    346,    0.0,    9.8,   0.00,   0.00, 1021.0,   81.4, -999.0
20-09-2022, 00:06:04,    346,    0.0,    9.9,   0.00,   0.00, 1021.0,   81.4, -999.0
20-09-2022, 00:06:14,    346,    0.0,   10.0,   0.00,   0.00, 1021.0,   81.4, -999.0
20-09-2022, 00:06:24,    345,    0.0,    9.9,   0.00,   0.00, 1021.0,   81.5, -999.0
20-09-2022, 00:06:34,    346,    0.0,    9.9,   0.00,   0.00, 1021.0,   81.4, -999.0
20-09-2022, 00:06:44,    344,    0.0,    9.9,   0.00,   0.00, 1021.0,   81.5, -999.0
20-09-2022, 00:06:54,    346,    0.0,    9.9,   0.00,   0.00, 1021.0,   81.5, -999.0
20-09-2022, 00:07:04,    345,    0.0,    9.9,   0.00,   0.00, 1021.0,   81.6, -999.0
20-09-2022, 00:07:14,    345,    0.0,    9.9,   0.00,   0.00, 1021.0,   81.6, -999.0
20-09-2022, 00:07:24,    346,    0.0,    9.9,   0.00,   0.00, 1021.0,   81.7, -999.0
20-09-2022, 00:07:34,    345,    0.0,    9.9,   0.00,   0.00, 1021.0,   81.7, -999.0
20-09-2022, 00:07:44,    346,    0.0,    9.9,   0.00,   0.00, 1021.0,   81.8, -999.0
20-09-2022, 00:07:54,    346,    0.0,    9.9,   0.00,   0.00, 1021.0,   81.9, -999.0
20-09-2022, 00:08:04,    345,    0.0,    9.8,   0.00,   0.00, 1021.0,   82.0, -999.0
20-09-2022, 00:08:14,    345,    0.0,    9.9,   0.00,   0.00, 1021.0,   81.9, -999.0
20-09-2022, 00:08:23,    345,    0.0,    9.9,   0.00,   0.00, 1021.0,   82.0, -999.0
20-09-2022, 00:08:34,    346,    0.0,   10.0,   0.00,   0.00, 1021.0,   82.0, -999.0
20-09-2022, 00:08:43,    345,    0.0,    9.9,   0.00,   0.00, 1021.0,   82.1, -999.0
20-09-2022, 00:08:53,    346,    0.0,    9.9,   0.00,   0.00, 1021.0,   82.0, -999.0
20-09-2022, 00:09:04,    345,    0.0,   10.0,   0.00,   0.00, 1021.0,   82.0, -999.0
20-09-2022, 00:09:13,    345,    0.0,    9.9,   0.00,   0.00, 1021.0,   82.0, -999.0
20-09-2022, 00:09:23,    346,    0.0,   10.0,   0.00,   0.00, 1021.0,   82.0, -999.0
20-09-2022, 00:09:33,    345,    0.0,   10.0,   0.00,   0.00, 1021.0,   82.1, -999.0
20-09-2022, 00:09:43,    345,    0.0,   10.0,   0.00,   0.00, 1021.0,   82.0, -999.0
20-09-2022, 00:09:53,    346,    0.0,    9.9,   0.00,   0.00, 1021.0,   82.0, -999.0
20-09-2022, 00:10:03,    346,    0.0,   10.0,   0.00,   0.00, 1021.0,   81.9, -999.0
20-09-2022, 00:10:13,    346,    0.0,   10.0,   0.00,   0.00, 1021.0,   82.0, -999.0
20-09-2022, 00:10:23,    346,    0.0,   10.0,   0.00,   0.00, 1021.0,   81.9, -999.0
20-09-2022, 00:10:33,    345,    0.0,    9.9,   0.00,   0.00, 1021.0,   82.0, -999.0
20-09-2022, 00:10:43,    346,    0.0,   10.0,   0.00,   0.00, 1021.0,   81.9, -999.0
20-09-2022, 00:10:52,    346,    0.0,   10.0,   0.00,   0.00, 1021.0,   81.9, -999.0
20-09-2022, 00:11:03,    345,    0.0,    9.9,   0.00,   0.00, 1021.0,   81.9, -999.0
20-09-2022, 00:11:13,    346,    0.0,   10.0,   0.00,   0.00, 1021.0,   81.9, -999.0
20-09-2022, 00:11:22,    346,    0.0,   10.0,   0.00,   0.00, 1021.0,   81.9, -999.0
20-09-2022, 00:11:33,    346,    0.0,   10.0,   0.00,   0.00, 1021.0,   81.9, -999.0
20-09-2022, 00:11:43,    345,    0.0,   10.0,   0.00,   0.00, 1021.0,   82.0, -999.0
20-09-2022, 00:11:52,    346,    0.0,   10.0,   0.00,   0.00, 1021.0,   81.9, -999.0
20-09-2022, 00:12:02,    346,    0.0,    9.9,   0.00,   0.00, 1021.0,   81.9, -999.0
20-09-2022, 00:12:13,    345,    0.0,   10.0,   0.00,   0.00, 1021.0,   81.9, -999.0
20-09-2022, 00:12:22,    345,    0.0,   10.0,   0.00,   0.00, 1021.0,   81.9, -999.0
20-09-2022, 00:12:32,    346,    0.0,    9.9,   0.00,   0.00, 1021.0,   81.9, -999.0
20-09-2022, 00:12:42,    346,    0.0,   10.0,   0.00,   0.00, 1021.0,   81.9, -999.0
20-09-2022, 00:12:52,    346,    0.0,   10.0,   0.00,   0.00, 1021.0,   81.9, -999.0
20-09-2022, 00:13:02,    346,    0.0,    9.9,   0.00,   0.00, 1021.0,   81.8, -999.0
20-09-2022, 00:13:12,    345,    0.0,   10.0,   0.00,   0.00, 1021.0,   81.8, -999.0
20-09-2022, 00:13:22,    346,    0.0,    9.9,   0.00,   0.00, 1021.0,   81.9, -999.0
20-09-2022, 00:13:32,    345,    0.0,    9.9,   0.00,   0.00, 1021.0,   81.8, -999.0
20-09-2022, 00:13:42,    346,    0.0,   10.0,   0.00,   0.00, 1021.0,   81.6, -999.0
20-09-2022, 00:13:52,    346,    0.0,   10.0,   0.00,   0.00, 1021.0,   81.8, -999.0
20-09-2022, 00:14:02,    346,    0.0,    9.8,   0.00,   0.00, 1021.0,   81.8, -999.0
20-09-2022, 00:14:12,    346,    0.0,   10.0,   0.00,   0.00, 1021.0,   82.0, -999.0
20-09-2022, 00:14:22,    346,    0.0,   10.0,   0.00,   0.00, 1021.0,   82.1, -999.0
20-09-2022, 00:14:31,    346,    0.0,   10.0,   0.00,   0.00, 1021.0,   82.0, -999.0
20-09-2022, 00:14:42,    345,    0.0,   10.0,   0.00,   0.00, 1021.0,   82.0, -999.0
20-09-2022, 00:14:52,    345,    0.0,   10.0,   0.00,   0.00, 1021.0,   82.0, -999.0
20-09-2022, 00:15:01,    346,    0.0,   10.0,   0.00,   0.00, 1021.0,   81.9, -999.0
20-09-2022, 00:15:11,    346,    0.0,   10.0,   0.00,   0.00, 1021.0,   82.0, -999.0
20-09-2022, 00:15:22,    346,    0.0,   10.0,   0.00,   0.00, 1021.0,   81.9, -999.0
20-09-2022, 00:15:31,    346,    0.0,   10.0,   0.00,   0.00, 1021.0,   82.0, -999.0
20-09-2022, 00:15:41,    346,    0.0,   10.0,   0.00,   0.00, 1021.0,   82.0, -999.0
20-09-2022, 00:15:51,    346,    0.0,   10.0,   0.00,   0.00, 1021.0,   82.1, -999.0
20-09-2022, 00:16:01,    345,    0.0,   10.1,   0.00,   0.00, 1021.0,   81.9, -999.0
20-09-2022, 00:16:11,    346,    0.0,   10.1,   0.00,   0.00, 1021.0,   82.0, -999.0
20-09-2022, 00:16:21,    346,    0.0,   10.1,   0.00,   0.00, 1021.0,   82.0, -999.0
20-09-2022, 00:16:31,    345,    0.0,   10.0,   0.00,   0.00, 1021.0,   81.8, -999.0
20-09-2022, 00:16:41,    346,    0.0,   10.1,   0.00,   0.00, 1021.0,   81.9, -999.0
20-09-2022, 00:16:51,    346,    0.0,   10.1,   0.00,   0.00, 1021.0,   81.9, -999.0
20-09-2022, 00:17:01,    346,    0.0,   10.1,   0.00,   0.00, 1021.0,   81.8, -999.0
20-09-2022, 00:17:11,    346,    0.0,   10.0,   0.00,   0.00, 1021.1,   81.8, -999.0
20-09-2022, 00:17:21,    346,    0.0,   10.0,   0.00,   0.00, 1021.0,   81.9, -999.0
20-09-2022, 00:17:31,    346,    0.0,    9.9,   0.00,   0.00, 1021.0,   81.9, -999.0
20-09-2022, 00:17:40,    346,    0.0,   10.0,   0.00,   0.00, 1021.0,   81.9, -999.0
20-09-2022, 00:17:51,    346,    0.0,    9.9,   0.00,   0.00, 1021.0,   81.8, -999.0
20-09-2022, 00:18:01,    346,    0.0,   10.0,   0.00,   0.00, 1021.0,   81.8, -999.0
20-09-2022, 00:18:10,    346,    0.0,   10.0,   0.00,   0.00, 1021.0,   81.9, -999.0
20-09-2022, 00:18:20,    345,    0.0,   10.0,   0.00,   0.00, 1021.0,   81.9, -999.0
20-09-2022, 00:18:31,    345,    0.0,    9.9,   0.00,   0.00, 1021.0,   81.9, -999.0
20-09-2022, 00:18:40,    345,    0.0,    9.9,   0.00,   0.00, 1021.1,   81.9, -999.0
20-09-2022, 00:18:50,    346,    0.0,   10.0,   0.00,   0.00, 1021.0,   82.0, -999.0
20-09-2022, 00:19:00,    345,    0.0,    9.9,   0.00,   0.00, 1021.1,   82.1, -999.0
20-09-2022, 00:19:10,    345,    0.0,   10.0,   0.00,   0.00, 1021.0,   82.1, -999.0
20-09-2022, 00:19:20,    345,    0.0,   10.0,   0.00,   0.00, 1021.0,   82.1, -999.0
20-09-2022, 00:19:30,    345,    0.0,   10.0,   0.00,   0.00, 1021.0,   82.0, -999.0
20-09-2022, 00:19:40,    346,    0.0,   10.0,   0.00,   0.00, 1021.0,   81.9, -999.0
20-09-2022, 00:19:50,    347,    0.0,    9.9,   0.00,   0.00, 1021.0,   82.0, -999.0
20-09-2022, 00:20:00,    345,    0.0,    9.9,   0.00,   0.00, 1021.0,   81.9, -999.0
20-09-2022, 00:20:10,    346,    0.0,    9.9,   0.00,   0.00, 1021.0,   82.0, -999.0
20-09-2022, 00:20:20,    345,    0.0,    9.9,   0.00,   0.00, 1021.0,   82.0, -999.0
20-09-2022, 00:20:30,    345,    0.0,    9.9,   0.00,   0.00, 1021.0,   81.9, -999.0
20-09-2022, 00:20:40,    345,    0.0,    9.9,   0.00,   0.00, 1021.1,   82.0, -999.0
20-09-2022, 00:20:49,    346,    0.0,    9.9,   0.00,   0.00, 1021.0,   82.1, -999.0
20-09-2022, 00:21:00,    345,    0.0,    9.9,   0.00,   0.00, 1021.1,   82.0, -999.0
20-09-2022, 00:21:10,    345,    0.0,    9.9,   0.00,   0.00, 1021.0,   82.1, -999.0
20-09-2022, 00:21:19,    345,    0.0,    9.9,   0.00,   0.00, 1021.1,   82.1, -999.0
20-09-2022, 00:21:30,    346,    0.0,   10.0,   0.00,   0.00, 1021.0,   82.1, -999.0
20-09-2022, 00:21:39,    346,    0.0,    9.9,   0.00,   0.00, 1021.1,   82.2, -999.0
20-09-2022, 00:21:49,    346,    0.0,    9.9,   0.00,   0.00, 1021.0,   82.2, -999.0
20-09-2022, 00:21:59,    345,    0.0,    9.9,   0.00,   0.00, 1021.1,   82.2, -999.0
20-09-2022, 00:22:09,    346,    0.0,    9.9,   0.00,   0.00, 1021.0,   82.2, -999.0
20-09-2022, 00:22:19,    346,    0.0,    9.9,   0.00,   0.00, 1021.1,   82.3, -999.0
20-09-2022, 00:22:29,    345,    0.0,    9.9,   0.00,   0.00, 1021.1,   82.2, -999.0
20-09-2022, 00:22:39,    346,    0.0,    9.9,   0.00,   0.00, 1021.1,   82.2, -999.0
20-09-2022, 00:22:49,    345,    0.0,    9.9,   0.00,   0.00, 1021.1,   82.1, -999.0
20-09-2022, 00:22:59,    345,    0.0,    9.9,   0.00,   0.00, 1021.0,   82.1, -999.0
20-09-2022, 00:23:09,    346,    0.0,    9.9,   0.00,   0.00, 1021.0,   82.0, -999.0
20-09-2022, 00:23:19,    346,    0.0,    9.9,   0.00,   0.00, 1021.1,   82.0, -999.0
20-09-2022, 00:23:29,    345,    0.0,    9.8,   0.00,   0.00, 1021.1,   82.1, -999.0
20-09-2022, 00:23:39,    346,    0.0,    9.8,   0.00,   0.00, 1021.1,   82.0, -999.0
20-09-2022, 00:23:49,    346,    0.0,    9.8,   0.00,   0.00, 1021.1,   82.0, -999.0
20-09-2022, 00:23:59,    346,    0.0,    9.8,   0.00,   0.00, 1021.1,   82.0, -999.0
20-09-2022, 00:24:09,    346,    0.0,    9.7,   0.00,   0.00, 1021.1,   82.0, -999.0
20-09-2022, 00:24:18,    345,    0.0,    9.8,   0.00,   0.00, 1021.1,   82.1, -999.0
20-09-2022, 00:24:28,    346,    0.0,    9.8,   0.00,   0.00, 1021.1,   82.2, -999.0
20-09-2022, 00:24:39,    345,    0.0,    9.8,   0.00,   0.00, 1021.1,   82.3, -999.0
20-09-2022, 00:24:48,    346,    0.0,    9.9,   0.00,   0.00, 1021.0,   82.4, -999.0
20-09-2022, 00:24:58,    346,    0.0,    9.8,   0.00,   0.00, 1021.1,   82.4, -999.0
20-09-2022, 00:25:09,    345,    0.0,    9.7,   0.00,   0.00, 1021.1,   82.4, -999.0
20-09-2022, 00:25:18,    345,    0.0,    9.9,   0.00,   0.00, 1021.1,   82.4, -999.0
20-09-2022, 00:25:28,    345,    0.0,    9.8,   0.00,   0.00, 1021.1,   82.3, -999.0
20-09-2022, 00:25:38,    346,    0.0,    9.9,   0.00,   0.00, 1021.1,   82.4, -999.0
20-09-2022, 00:25:48,    345,    0.0,    9.9,   0.00,   0.00, 1021.1,   82.4, -999.0
20-09-2022, 00:25:58,    346,    0.0,    9.9,   0.00,   0.00, 1021.1,   82.5, -999.0
20-09-2022, 00:26:08,    346,    0.0,    9.9,   0.00,   0.00, 1021.1,   82.5, -999.0
20-09-2022, 00:26:18,    346,    0.0,    9.9,   0.00,   0.00, 1021.1,   82.5, -999.0
20-09-2022, 00:26:28,    346,    0.0,    9.8,   0.00,   0.00, 1021.1,   82.5, -999.0
20-09-2022, 00:26:38,    346,    0.0,    9.8,   0.00,   0.00, 1021.1,   82.4, -999.0
20-09-2022, 00:26:48,    345,    0.0,    9.9,   0.00,   0.00, 1021.1,   82.4, -999.0
20-09-2022, 00:26:58,    346,    0.0,    9.9,   0.00,   0.00, 1021.1,   82.3, -999.0
20-09-2022, 00:27:08,    345,    0.0,    9.8,   0.00,   0.00, 1021.1,   82.3, -999.0
20-09-2022, 00:27:18,    345,    0.0,    9.8,   0.00,   0.00, 1021.1,   82.2, -999.0
20-09-2022, 00:27:27,    346,    0.0,    9.8,   0.00,   0.00, 1021.1,   82.3, -999.0
20-09-2022, 00:27:38,    345,    0.0,    9.8,   0.00,   0.00, 1021.1,   82.2, -999.0
20-09-2022, 00:27:48,    345,    0.0,    9.8,   0.00,   0.00, 1021.1,   82.3, -999.0
20-09-2022, 00:27:57,    345,    0.0,    9.7,   0.00,   0.00, 1021.1,   82.2, -999.0
20-09-2022, 00:28:07,    346,    0.0,    9.8,   0.00,   0.00, 1021.2,   82.0, -999.0
20-09-2022, 00:28:17,    346,    0.0,    9.7,   0.00,   0.00, 1021.2,   82.1, -999.0
20-09-2022, 00:28:27,    346,    0.0,    9.7,   0.00,   0.00, 1021.1,   82.2, -999.0
20-09-2022, 00:28:37,    346,    0.0,    9.7,   0.00,   0.00, 1021.1,   82.3, -999.0
20-09-2022, 00:28:47,    346,    0.0,    9.7,   0.00,   0.00, 1021.1,   82.4, -999.0
20-09-2022, 00:28:57,    345,    0.0,    9.7,   0.00,   0.00, 1021.1,   82.4, -999.0
20-09-2022, 00:29:07,    346,    0.0,    9.7,   0.00,   0.00, 1021.1,   82.5, -999.0
20-09-2022, 00:29:17,    345,    0.0,    9.7,   0.00,   0.00, 1021.2,   82.5, -999.0
20-09-2022, 00:29:27,    346,    0.0,    9.7,   0.00,   0.00, 1021.1,   82.5, -999.0
20-09-2022, 00:29:37,    346,    0.0,    9.8,   0.00,   0.00, 1021.2,   82.7, -999.0
20-09-2022, 00:29:47,    345,    0.0,    9.8,   0.00,   0.00, 1021.1,   82.8, -999.0
20-09-2022, 00:29:57,    346,    0.0,    9.7,   0.00,   0.00, 1021.1,   82.9, -999.0
20-09-2022, 00:30:07,    346,    0.0,    9.7,   0.00,   0.00, 1021.2,   82.9, -999.0
20-09-2022, 00:30:17,    345,    0.0,    9.8,   0.00,   0.00, 1021.1,   82.9, -999.0
20-09-2022, 00:30:27,    346,    0.0,    9.8,   0.00,   0.00, 1021.1,   82.9, -999.0
20-09-2022, 00:30:36,    346,    0.0,    9.8,   0.00,   0.00, 1021.1,   82.9, -999.0
20-09-2022, 00:30:47,    346,    0.0,    9.8,   0.00,   0.00, 1021.1,   83.0, -999.0
20-09-2022, 00:30:57,    346,    0.0,    9.8,   0.00,   0.00, 1021.1,   83.0, -999.0
20-09-2022, 00:31:06,    346,    0.0,    9.8,   0.00,   0.00, 1021.2,   82.9, -999.0
20-09-2022, 00:31:16,    345,    0.0,    9.7,   0.00,   0.00, 1021.2,   83.0, -999.0
20-09-2022, 00:31:27,    345,    0.0,    9.8,   0.00,   0.00, 1021.1,   83.0, -999.0
20-09-2022, 00:31:36,    345,    0.0,    9.7,   0.00,   0.00, 1021.1,   83.0, -999.0
20-09-2022, 00:31:46,    346,    0.0,    9.8,   0.00,   0.00, 1021.1,   82.9, -999.0
20-09-2022, 00:31:56,    346,    0.0,    9.8,   0.00,   0.00, 1021.1,   82.9, -999.0
20-09-2022, 00:32:06,    346,    0.0,    9.8,   0.00,   0.00, 1021.1,   83.0, -999.0
20-09-2022, 00:32:16,    346,    0.0,    9.8,   0.00,   0.00, 1021.1,   83.0, -999.0
20-09-2022, 00:32:26,    346,    0.0,    9.8,   0.00,   0.00, 1021.1,   83.0, -999.0
20-09-2022, 00:32:36,    345,    0.0,    9.8,   0.00,   0.00, 1021.1,   82.9, -999.0
20-09-2022, 00:32:46,    346,    0.0,    9.8,   0.00,   0.00, 1021.1,   83.0, -999.0
20-09-2022, 00:32:56,    345,    0.0,    9.8,   0.00,   0.00, 1021.1,   83.0, -999.0
20-09-2022, 00:33:06,    346,    0.0,    9.8,   0.00,   0.00, 1021.1,   83.0, -999.0
20-09-2022, 00:33:16,    346,    0.0,    9.7,   0.00,   0.00, 1021.1,   83.0, -999.0
20-09-2022, 00:33:26,    345,    0.0,    9.8,   0.00,   0.00, 1021.1,   82.9, -999.0
20-09-2022, 00:33:36,    345,    0.0,    9.7,   0.00,   0.00, 1021.1,   82.9, -999.0
20-09-2022, 00:33:45,    346,    0.0,    9.7,   0.00,   0.00, 1021.1,   82.9, -999.0
20-09-2022, 00:33:56,    346,    0.0,    9.8,   0.00,   0.00, 1021.2,   83.0, -999.0
20-09-2022, 00:34:06,    346,    0.0,    9.8,   0.00,   0.00, 1021.1,   82.9, -999.0
20-09-2022, 00:34:15,    345,    0.0,    9.8,   0.00,   0.00, 1021.2,   82.9, -999.0
20-09-2022, 00:34:25,    345,    0.0,    9.7,   0.00,   0.00, 1021.1,   82.9, -999.0
20-09-2022, 00:34:36,    346,    0.0,    9.7,   0.00,   0.00, 1021.1,   82.8, -999.0
20-09-2022, 00:34:45,    346,    0.0,    9.7,   0.00,   0.00, 1021.1,   82.9, -999.0
20-09-2022, 00:34:55,    346,    0.0,    9.7,   0.00,   0.00, 1021.2,   82.9, -999.0
20-09-2022, 00:35:05,    345,    0.0,    9.7,   0.00,   0.00, 1021.1,   82.9, -999.0
20-09-2022, 00:35:15,    345,    0.0,    9.6,   0.00,   0.00, 1021.1,   82.9, -999.0
20-09-2022, 00:35:25,    346,    0.0,    9.6,   0.00,   0.00, 1021.1,   82.8, -999.0
20-09-2022, 00:35:35,    345,    0.0,    9.7,   0.00,   0.00, 1021.2,   82.8, -999.0
20-09-2022, 00:35:45,    345,    0.0,    9.7,   0.00,   0.00, 1021.2,   82.9, -999.0
20-09-2022, 00:35:55,    345,    0.0,    9.7,   0.00,   0.00, 1021.2,   82.8, -999.0
20-09-2022, 00:36:05,    346,    0.0,    9.7,   0.00,   0.00, 1021.2,   82.9, -999.0
20-09-2022, 00:36:15,    345,    0.0,    9.7,   0.00,   0.00, 1021.2,   82.8, -999.0
20-09-2022, 00:36:25,    345,    0.0,    9.7,   0.00,   0.00, 1021.1,   82.8, -999.0
20-09-2022, 00:36:35,    346,    0.0,    9.6,   0.00,   0.00, 1021.1,   82.9, -999.0
20-09-2022, 00:36:45,    346,    0.0,    9.6,   0.00,   0.00, 1021.1,   82.9, -999.0
20-09-2022, 00:36:54,    346,    0.0,    9.6,   0.00,   0.00, 1021.1,   82.8, -999.0
20-09-2022, 00:37:05,    346,    0.0,    9.6,   0.00,   0.00, 1021.1,   82.8, -999.0
20-09-2022, 00:37:14,    346,    0.0,    9.6,   0.00,   0.00, 1021.1,   82.8, -999.0
20-09-2022, 00:37:24,    346,    0.0,    9.5,   0.00,   0.00, 1021.1,   82.8, -999.0
20-09-2022, 00:37:35,    345,    0.0,    9.6,   0.00,   0.00, 1021.1,   82.9, -999.0
20-09-2022, 00:37:44,    346,    0.0,    9.5,   0.00,   0.00, 1021.1,   83.0, -999.0
20-09-2022, 00:37:54,    346,    0.0,    9.5,   0.00,   0.00, 1021.1,   83.1, -999.0
20-09-2022, 00:38:04,    345,    0.0,    9.6,   0.00,   0.00, 1021.1,   83.4, -999.0
20-09-2022, 00:38:14,    345,    0.0,    9.6,   0.00,   0.00, 1021.2,   83.4, -999.0
20-09-2022, 00:38:24,    346,    0.0,    9.6,   0.00,   0.00, 1021.1,   83.4, -999.0
20-09-2022, 00:38:34,    346,    0.0,    9.5,   0.00,   0.00, 1021.1,   83.6, -999.0
20-09-2022, 00:38:44,    345,    0.0,    9.6,   0.00,   0.00, 1021.1,   83.7, -999.0
20-09-2022, 00:38:54,    345,    0.0,    9.6,   0.00,   0.00, 1021.1,   83.7, -999.0
20-09-2022, 00:39:04,    345,    0.0,    9.6,   0.00,   0.00, 1021.1,   83.7, -999.0
20-09-2022, 00:39:14,    346,    0.0,    9.6,   0.00,   0.00, 1021.1,   83.9, -999.0
20-09-2022, 00:39:24,    345,    0.0,    9.7,   0.00,   0.00, 1021.1,   83.8, -999.0
20-09-2022, 00:39:34,    345,    0.0,    9.6,   0.00,   0.00, 1021.1,   83.8, -999.0
20-09-2022, 00:39:44,    345,    0.0,    9.6,   0.00,   0.00, 1021.1,   83.9, -999.0
20-09-2022, 00:39:54,    346,    0.0,    9.7,   0.00,   0.00, 1021.1,   83.9, -999.0
20-09-2022, 00:40:04,    346,    0.0,    9.6,   0.00,   0.00, 1021.1,   84.0, -999.0
20-09-2022, 00:40:14,    345,    0.0,    9.7,   0.00,   0.00, 1021.1,   83.9, -999.0
20-09-2022, 00:40:23,    345,    0.0,    9.7,   0.00,   0.00, 1021.0,   84.0, -999.0
20-09-2022, 00:40:33,    345,    0.0,    9.7,   0.00,   0.00, 1021.1,   84.0, -999.0
20-09-2022, 00:40:44,    345,    0.0,    9.7,   0.00,   0.00, 1021.1,   84.0, -999.0
20-09-2022, 00:40:53,    345,    0.0,    9.7,   0.00,   0.00, 1021.1,   84.0, -999.0
20-09-2022, 00:41:03,    345,    0.0,    9.7,   0.00,   0.00, 1021.0,   83.8, -999.0
20-09-2022, 00:41:13,    346,    0.0,    9.7,   0.00,   0.00, 1021.1,   83.9, -999.0
20-09-2022, 00:41:23,    346,    0.0,    9.7,   0.00,   0.00, 1021.1,   83.9, -999.0
20-09-2022, 00:41:33,    346,    0.0,    9.7,   0.00,   0.00, 1021.1,   83.8, -999.0
20-09-2022, 00:41:43,    346,    0.0,    9.7,   0.00,   0.00, 1021.1,   83.9, -999.0
20-09-2022, 00:41:53,    345,    0.0,    9.7,   0.00,   0.00, 1021.1,   83.9, -999.0
20-09-2022, 00:42:03,    346,    0.0,    9.7,   0.00,   0.00, 1021.1,   83.9, -999.0
20-09-2022, 00:42:13,    345,    0.0,    9.7,   0.00,   0.00, 1021.1,   83.8, -999.0
20-09-2022, 00:42:23,    346,    0.0,    9.7,   0.00,   0.00, 1021.2,   83.8, -999.0
20-09-2022, 00:42:33,    346,    0.0,    9.7,   0.00,   0.00, 1021.1,   83.8, -999.0
20-09-2022, 00:42:43,    346,    0.0,    9.7,   0.00,   0.00, 1021.2,   83.7, -999.0
20-09-2022, 00:42:53,    346,    0.0,    9.7,   0.00,   0.00, 1021.1,   83.7, -999.0
20-09-2022, 00:43:02,    345,    0.0,    9.7,   0.00,   0.00, 1021.1,   83.7, -999.0
20-09-2022, 00:43:13,    346,    0.0,    9.6,   0.00,   0.00, 1021.1,   83.7, -999.0
20-09-2022, 00:43:23,    345,    0.0,    9.6,   0.00,   0.00, 1021.1,   83.6, -999.0
20-09-2022, 00:43:32,    346,    0.0,    9.6,   0.00,   0.00, 1021.2,   83.5, -999.0
20-09-2022, 00:43:42,    346,    0.0,    9.5,   0.00,   0.00, 1021.2,   83.4, -999.0
20-09-2022, 00:43:53,    346,    0.0,    9.5,   0.00,   0.00, 1021.1,   83.4, -999.0
20-09-2022, 00:44:02,    345,    0.0,    9.5,   0.00,   0.00, 1021.1,   83.4, -999.0
20-09-2022, 00:44:12,    346,    0.0,    9.5,   0.00,   0.00, 1021.2,   83.4, -999.0
20-09-2022, 00:44:22,    346,    0.0,    9.5,   0.00,   0.00, 1021.1,   83.4, -999.0
20-09-2022, 00:44:32,    346,    0.0,    9.5,   0.00,   0.00, 1021.2,   83.4, -999.0
20-09-2022, 00:44:42,    346,    0.0,    9.5,   0.00,   0.00, 1021.2,   83.3, -999.0
20-09-2022, 00:44:52,    346,    0.0,    9.5,   0.00,   0.00, 1021.2,   83.5, -999.0
20-09-2022, 00:45:02,    345,    0.0,    9.5,   0.00,   0.00, 1021.1,   83.7, -999.0
20-09-2022, 00:45:12,    345,    0.0,    9.5,   0.00,   0.00, 1021.2,   83.8, -999.0
20-09-2022, 00:45:22,    346,    0.0,    9.5,   0.00,   0.00, 1021.2,   84.0, -999.0
20-09-2022, 00:45:32,    346,    0.0,    9.5,   0.00,   0.00, 1021.2,   84.1, -999.0
20-09-2022, 00:45:42,    346,    0.0,    9.5,   0.00,   0.00, 1021.2,   84.3, -999.0
20-09-2022, 00:45:52,    346,    0.0,    9.6,   0.00,   0.00, 1021.2,   84.3, -999.0
20-09-2022, 00:46:02,    346,    0.0,    9.5,   0.00,   0.00, 1021.2,   84.4, -999.0
20-09-2022, 00:46:11,    346,    0.0,    9.5,   0.00,   0.00, 1021.2,   84.3, -999.0
20-09-2022, 00:46:22,    346,    0.0,    9.5,   0.00,   0.00, 1021.1,   84.3, -999.0
20-09-2022, 00:46:32,    346,    0.0,    9.5,   0.00,   0.00, 1021.1,   84.3, -999.0
20-09-2022, 00:46:41,    346,    0.0,    9.6,   0.00,   0.00, 1021.1,   84.2, -999.0